STARLINK-1407 (45703 NORAD) Tracking and Keplerian Element Data

This shows tracking and keplerian element data for the satellite.

Feedback or suggestion? Click here.




ElementValue
Catalog45703
NameSTARLINK-1407
Epoch Orbit182
Epoch Day191.91670139
Epoch Year2020
RAAN353.5266
Inclination52.9992
Eccentricity0.0001333
Argument of Perigee58.0655
Mean Anonmoly143.6019
Mean Motion15.62750096
Decay Rate0.00058641
L11 45703U 20035AY 20191.91670139 .00058641 00000-0 64170-3 0 9993
L22 45703 52.9992 353.5266 0001333 58.0655 143.6019 15.62750096 1822

Live tracking and technical data element details for STARLINK-1407 (NORAD 45703). STARLINK-1407 can be tracked NOW for your location showing map with azimuth and elevation plus other details from your city location.

Track the satellite on the map from your city or location and see movement details for azimuth, elevation, latitude, longitude, range, height, and movement on the map or in text.







IsCatalogInMostPopularTable: catalog: 45703, numindb: 5
Update: records affected: 1



GetName: 45703 STARLINK-1407

Hit Count: updated at: Fri, 10 Jul 2020 15:46:20 GMT